Location: Be Tobo
(6.6442°N, 10.6239°W)
Time: 01:13:15
(UTC+00:00)

Cosmos 1932 - Pass Details

Date: 18 September 2020
Orbit: 925 x 1005 km, 65.0° (Epoch: 21 October)

Event Time Altitude Azimuth Distance (km) Brightness Sun altitude
Rises 19:54:22 0° 346° (NNW) 3,644 7.7 -19.2°
Reaches altitude 10° 19:57:00 10° 351° (N) 2,686 7.0 -19.8°
Maximum altitude 20:03:07 55° 68° (ENE) 1,123 4.5 -21.3°
Enters shadow 20:05:14 38° 123° (ESE) 1,402 4.9 -21.9°
